Hourly Data Report for January 04, 2022

RANKIN INLET A
NUNAVUT
Current Station Operator: NAVCAN

62°48'38.000" N
92°06'53.000" W
32.30 m
2303405
71083
YRT

Download Data

Hourly Data (January 2022)
Hourly Data Report for January 4, 2022
TIME
LST
Temp Definition
°C
Dew Point Definition
°C
Rel Hum Definition
%
Precip. Amount Definition
mm

Wind Dir Definition
10's deg

Wind Spd Definition
km/h
Visibility Definition
km
Stn Press Definition
kPa
Hmdx Definition


Wind Chill Definition


Weather Definition


00:00 -19.9 -23.0 77   33 29 9.7 100.73   -32 Ice Crystals,Blowing Snow
01:00 -18.1 -21.0 78   35 44 3.2 100.74   -32 Snow,Blowing Snow
02:00 -18.6 -21.5 78   35 41 1.6 100.79   -32 Snow,Blowing Snow
03:00 -18.9 -21.9 78   34 42 3.2 100.88   -33 Snow,Blowing Snow
04:00 -17.5 -20.3 79   35 40 3.2 100.94   -31 Snow,Blowing Snow
05:00 -17.4 -20.3 79   35 44 3.2 100.99   -31 Snow,Blowing Snow
06:00 -17.8 -20.7 78   35 46 3.2 101.04   -32 Snow,Blowing Snow
07:00 -18.4 -21.4 78   34 43 2.4 101.10   -32 Snow,Blowing Snow
08:00 -20.3 -23.4 76   34 49 1.2 101.15   -36 Blowing Snow
09:00 -22.2 -25.5 75   34 44 1.2 101.21   -38 Blowing Snow
10:00 -22.8 -26.1 75   34 55 0.4 101.22   -40 Blowing Snow
11:00 -23.3 -26.7 74   35 55 0.2 101.26   -40 Blowing Snow
12:00 -24.9 -28.4 73   35 58 0.2 101.33   -43 Blowing Snow
13:00 -26.5 -30.1 72   35 62 0.2 101.34   -46 Blowing Snow
14:00 -26.5 -30.1 72   35 68 0.2 101.32   -46 Blowing Snow
15:00 -26.6 -30.3 72   34 60 0.2 101.52   -46 Blowing Snow
16:00 -26.8 -30.5 72   35 62 0.2 101.45   -46 Blowing Snow
17:00 -27.4 -31.1 71   34 50 0.4 101.69   -45 Blowing Snow
18:00 -27.8 -31.6 71   34 58 0.4 101.64   -47 Blowing Snow
19:00 -28.2 -31.9 71   33 53 0.4 101.68   -47 Blowing Snow
20:00 -28.7 -32.5 70   33 49 0.4 101.75   -47 Blowing Snow
21:00 -28.8 -32.7 70   34 47 0.4 101.71   -47 Blowing Snow
22:00 -29.1 -33.0 70   34 52 0.4 101.69   -48 Blowing Snow
23:00 -29.4 -33.3 70   32 46 0.6 101.79   -48 Blowing Snow

Notes on Data Quality.

Legend

  • E = Estimated
  • M = Missing
  • NA = Not Available*
  • [empty] = Indicates an unobserved value
Date modified: